View from above orbital plane
|
View from above satellite
|
Ground track
|
The orbit data is extracted from the following two-line orbital elements,
1 32958U 08026A 21021.85535945 -.00000009 00000-0 15459-4 0 9991
2 32958 98.4320 2.5458 0009784 66.7705 293.4501 14.18645244655793
Epoch (UTC): | 21 January 2021 20:31:43 |
Eccentricity: | 0.0009784 |
inclination: | 98.4320° |
perigee height: | 823 km |
apogee height: | 837 km |
right ascension of ascending node: | 2.5458° |
argument of perigee: | 66.7705° |
revolutions per day: | 14.18645244 |
mean anomaly at epoch: | 293.4501° |
orbit number at epoch: | 65579 |
The dashed part of the orbit path shows where the satellite is in the earth's shadow,
|
|